Location: Central Falls
(41.8900°N, 71.3929°W)
Time: 04:31:59
(UTC+00:00)

Tiros 1 - Pass Details

Date: 13 December 2023
Orbit: 625 x 658 km, 48.4° (Epoch: 01 March)

Event Time Altitude Azimuth Distance (km) Brightness Sun altitude
Rises 04:12:44 0° 188° (S) 2,934 - -70.4°
Reaches altitude 10° 04:16:01 10° 164° (SSE) 2,037 - -70.6°
Maximum altitude 04:18:31 14° 131° (SE) 1,769 - -70.7°
Drops below altitude 10° 04:21:03 10° 99° (E) 2,055 - -70.8°
Sets 04:24:22 0° 75° (ENE) 2,977 - -71.0°
